Time,TemperatureF,DewpointF,PressureIn,WindDirection,WindDirectionDegrees,WindSpeedMPH,WindSpeedGustMPH,Humidity,HourlyPrecipIn,Conditions,Clouds,dailyrainin,SoftwareType,DateUTC
2013-05-21 09:00:00,78.7,73.5,30.02,SSW,203,1.0,4.0,84,0.00,RA,,0.01,WeatherDisplay:10.37,2013-05-20 23:00:00,
2013-05-21 09:10:00,79.3,73.7,30.02,SE,138,0.0,3.0,83,0.00,RA,,0.01,WeatherDisplay:10.37,2013-05-20 23:10:00,
2013-05-21 09:15:00,79.7,73.7,30.03,SE,131,1.0,3.0,82,0.00,RA,,0.01,WeatherDisplay:10.37,2013-05-20 23:15:00,
2013-05-21 09:20:00,80.1,73.7,30.03,SE,136,0.0,3.0,81,0.00,RA,,0.01,WeatherDisplay:10.37,2013-05-20 23:20:00,
2013-05-21 09:25:00,80.5,73.8,30.03,SE,125,2.0,3.0,80,0.00,RA,,0.01,WeatherDisplay:10.37,2013-05-20 23:25:00,
2013-05-21 09:30:00,80.9,73.7,30.03,ESE,113,0.0,4.0,79,0.00,RA,,0.01,WeatherDisplay:10.37,2013-05-20 23:30:00,
2013-05-21 09:35:00,81.0,73.9,30.03,ESE,112,0.0,4.0,79,0.00,RA,,0.01,WeatherDisplay:10.37,2013-05-20 23:35:00,
2013-05-21 09:40:00,81.2,73.7,30.02,ESE,111,0.0,3.0,78,0.00,RA,,0.01,WeatherDisplay:10.37,2013-05-20 23:40:00,
2013-05-21 09:45:00,81.6,73.7,30.02,ESE,109,2.0,4.0,77,0.00,RA,,0.01,WeatherDisplay:10.37,2013-05-20 23:45:00,
2013-05-21 09:50:00,81.5,74.0,30.02,ESE,107,0.0,3.0,78,0.00,RA,,0.01,WeatherDisplay:10.37,2013-05-20 23:50:00,
2013-05-21 09:55:00,81.2,73.3,30.02,ESE,111,0.0,3.0,77,0.00,RA,,0.01,WeatherDisplay:10.37,2013-05-20 23:55:00,
2013-05-21 10:00:00,81.1,73.6,30.02,ESE,115,0.0,3.0,78,0.00,RA,,0.01,WeatherDisplay:10.37,2013-05-21 00:00:00,
2013-05-21 10:05:00,81.2,73.7,30.02,SE,126,0.0,2.0,78,0.00,RA,,0.01,WeatherDisplay:10.37,2013-05-21 00:05:00,
2013-05-21 10:15:00,81.4,73.9,30.02,SE,134,2.0,3.0,78,0.00,RA,,0.01,WeatherDisplay:10.37,2013-05-21 00:15:00,
2013-05-21 10:20:00,81.5,74.0,30.01,ESE,123,2.0,3.0,78,0.00,RA,,0.01,WeatherDisplay:10.37,2013-05-21 00:20:00,
2013-05-21 10:25:00,81.8,74.6,30.02,East,97,3.0,5.0,79,0.00,RA,,0.01,WeatherDisplay:10.37,2013-05-21 00:25:00,
2013-05-21 10:30:00,81.7,74.2,30.01,East,85,5.0,5.0,78,0.00,RA,,0.01,WeatherDisplay:10.37,2013-05-21 00:30:00,
2013-05-21 10:35:00,81.3,73.8,30.01,East,84,2.0,5.0,78,0.00,RA,,0.01,WeatherDisplay:10.37,2013-05-21 00:35:00,
2013-05-21 10:40:00,81.2,73.7,30.01,East,85,5.0,5.0,78,0.00,RA,,0.01,WeatherDisplay:10.37,2013-05-21 00:40:00,
2013-05-21 10:45:00,81.6,74.8,30.00,East,84,5.0,12.0,80,0.00,RA,,0.01,WeatherDisplay:10.37,2013-05-21 00:45:00,
2013-05-21 10:50:00,81.5,74.4,30.00,East,84,3.0,7.0,79,0.00,RA,,0.01,WeatherDisplay:10.37,2013-05-21 00:50:00,
2013-05-21 10:55:00,81.5,74.4,30.00,East,85,6.0,7.0,79,0.00,RA,,0.01,WeatherDisplay:10.37,2013-05-21 00:55:00,
2013-05-21 11:00:00,81.2,74.1,30.00,East,85,5.0,7.0,79,0.00,RA,,0.01,WeatherDisplay:10.37,2013-05-21 01:00:00,
2013-05-21 11:10:00,81.6,74.8,29.99,East,79,5.0,6.0,80,0.00,RA,,0.01,WeatherDisplay:10.37,2013-05-21 01:10:00,
2013-05-21 11:15:00,82.1,75.3,29.99,ENE,77,3.0,6.0,80,0.00,RA,,0.01,WeatherDisplay:10.37,2013-05-21 01:15:00,
2013-05-21 11:20:00,81.6,74.4,29.99,ENE,78,5.0,6.0,79,0.00,RA,,0.01,WeatherDisplay:10.37,2013-05-21 01:20:00,
2013-05-21 11:25:00,81.4,74.6,29.98,ENE,78,3.0,6.0,80,0.00,RA,,0.01,WeatherDisplay:10.37,2013-05-21 01:25:00,
2013-05-21 11:30:00,81.3,74.6,29.98,ENE,77,2.0,7.0,80,0.00,RA,,0.01,WeatherDisplay:10.37,2013-05-21 01:30:00,
2013-05-21 11:35:00,81.9,74.7,29.98,East,81,7.0,12.0,79,0.00,RA,,0.01,WeatherDisplay:10.37,2013-05-21 01:35:00,
2013-05-21 11:40:00,81.7,74.5,29.98,East,86,6.0,9.0,79,0.00,RA,,0.01,WeatherDisplay:10.37,2013-05-21 01:40:00,
2013-05-21 11:45:00,81.8,74.3,29.98,East,87,5.0,6.0,78,0.00,RA,,0.01,WeatherDisplay:10.37,2013-05-21 01:45:00,
2013-05-21 11:50:00,81.8,74.3,29.98,East,88,6.0,10.0,78,0.00,RA,,0.01,WeatherDisplay:10.37,2013-05-21 01:50:00,
2013-05-21 11:55:00,81.8,74.3,29.98,East,84,5.0,9.0,78,0.00,RA,,0.01,WeatherDisplay:10.37,2013-05-21 01:55:00,
2013-05-21 12:00:00,82.0,74.9,29.97,East,82,6.0,10.0,79,0.00,RA,,0.01,WeatherDisplay:10.37,2013-05-21 02:00:00,
2013-05-21 12:05:00,82.0,74.8,29.97,East,81,6.0,10.0,79,0.00,RA,,0.01,WeatherDisplay:10.37,2013-05-21 02:05:00,
2013-05-21 12:10:00,82.1,75.3,29.97,East,82,6.0,9.0,80,0.00,RA,,0.01,WeatherDisplay:10.37,2013-05-21 02:10:00,
2013-05-21 12:15:00,82.1,74.6,29.97,East,88,3.0,8.0,78,0.00,RA,,0.01,WeatherDisplay:10.37,2013-05-21 02:15:00,
2013-05-21 12:20:00,82.3,74.7,29.97,East,91,6.0,9.0,78,0.00,RA,,0.01,WeatherDisplay:10.37,2013-05-21 02:20:00,
2013-05-21 12:25:00,82.3,75.1,29.96,East,88,7.0,10.0,79,0.00,RA,,0.01,WeatherDisplay:10.37,2013-05-21 02:25:00,
2013-05-21 12:30:00,81.9,74.4,29.95,East,86,10.0,13.0,78,0.00,RA,,0.01,WeatherDisplay:10.37,2013-05-21 02:30:00,
2013-05-21 12:35:00,81.9,74.7,29.95,East,87,8.0,12.0,79,0.00,RA,,0.01,WeatherDisplay:10.37,2013-05-21 02:35:00,
2013-05-21 12:40:00,82.1,75.3,29.95,East,86,10.0,13.0,80,0.00,RA,,0.01,WeatherDisplay:10.37,2013-05-21 02:40:00,
2013-05-21 12:45:00,82.2,75.4,29.95,East,85,9.0,13.0,80,0.00,RA,,0.01,WeatherDisplay:10.37,2013-05-21 02:45:00,
2013-05-21 12:50:00,81.7,74.9,29.94,East,88,10.0,14.0,80,0.00,RA,,0.01,WeatherDisplay:10.37,2013-05-21 02:50:00,
2013-05-21 12:55:00,81.6,74.8,29.94,East,87,9.0,13.0,80,0.00,RA,,0.01,WeatherDisplay:10.37,2013-05-21 02:55:00,
2013-05-21 13:00:00,81.5,74.7,29.94,East,87,10.0,16.0,80,0.00,RA,,0.01,WeatherDisplay:10.37,2013-05-21 03:00:00,
2013-05-21 13:10:00,81.7,75.3,29.94,East,81,7.0,13.0,81,0.00,RA,,0.01,WeatherDisplay:10.37,2013-05-21 03:10:00,
2013-05-21 13:15:00,82.0,75.3,29.93,East,79,9.0,12.0,80,0.00,RA,,0.01,WeatherDisplay:10.37,2013-05-21 03:15:00,
2013-05-21 13:20:00,82.0,75.2,29.93,East,82,10.0,13.0,80,0.00,RA,,0.01,WeatherDisplay:10.37,2013-05-21 03:20:00,
2013-05-21 13:25:00,81.8,75.0,29.93,East,81,8.0,14.0,80,0.00,RA,,0.01,WeatherDisplay:10.37,2013-05-21 03:25:00,
2013-05-21 13:30:00,82.1,76.1,29.92,East,80,6.0,12.0,82,0.00,RA,,0.01,WeatherDisplay:10.37,2013-05-21 03:30:00,
2013-05-21 13:35:00,82.3,75.8,29.92,East,81,10.0,14.0,81,0.00,RA,,0.01,WeatherDisplay:10.37,2013-05-21 03:35:00,
2013-05-21 13:40:00,81.7,74.9,29.92,East,82,10.0,14.0,80,0.00,RA,,0.01,WeatherDisplay:10.37,2013-05-21 03:40:00,
2013-05-21 13:45:00,81.5,75.1,29.92,ENE,78,7.0,14.0,81,0.00,RA,,0.01,WeatherDisplay:10.37,2013-05-21 03:45:00,
2013-05-21 13:50:00,81.6,75.6,29.92,ENE,78,9.0,13.0,82,0.00,RA,,0.01,WeatherDisplay:10.37,2013-05-21 03:50:00,
2013-05-21 13:55:00,81.8,75.4,29.92,ENE,76,9.0,13.0,81,0.00,RA,,0.01,WeatherDisplay:10.37,2013-05-21 03:55:00,
2013-05-21 14:00:00,82.0,75.6,29.92,ENE,76,9.0,14.0,81,0.00,RA,,0.01,WeatherDisplay:10.37,2013-05-21 04:00:00,
2013-05-21 14:05:00,81.5,75.4,29.92,East,80,9.0,15.0,82,0.00,RA,,0.01,WeatherDisplay:10.37,2013-05-21 04:05:00,
2013-05-21 14:10:00,81.5,75.5,29.91,East,80,9.0,13.0,82,0.00,RA,,0.01,WeatherDisplay:10.37,2013-05-21 04:10:00,
2013-05-21 14:15:00,81.0,74.6,29.91,East,82,12.0,15.0,81,0.00,RA,,0.01,WeatherDisplay:10.37,2013-05-21 04:15:00,
2013-05-21 14:20:00,80.6,74.6,29.91,East,86,13.0,15.0,82,0.00,RA,,0.01,WeatherDisplay:10.37,2013-05-21 04:20:00,
2013-05-21 14:25:00,80.6,74.6,29.90,East,87,13.0,14.0,82,0.00,RA,,0.01,WeatherDisplay:10.37,2013-05-21 04:25:00,
2013-05-21 14:30:00,80.9,75.2,29.90,East,85,10.0,15.0,83,0.00,RA,,0.01,WeatherDisplay:10.37,2013-05-21 04:30:00,
2013-05-21 14:35:00,80.9,75.3,29.90,East,83,10.0,16.0,83,0.00,RA,,0.01,WeatherDisplay:10.37,2013-05-21 04:35:00,
2013-05-21 14:40:00,80.6,74.6,29.90,East,82,12.0,16.0,82,0.00,RA,,0.01,WeatherDisplay:10.37,2013-05-21 04:40:00,
2013-05-21 14:45:00,80.3,74.7,29.90,East,82,12.0,15.0,83,0.00,RA,,0.01,WeatherDisplay:10.37,2013-05-21 04:45:00,
2013-05-21 14:50:00,80.2,74.2,29.90,East,82,12.0,14.0,82,0.00,RA,,0.01,WeatherDisplay:10.37,2013-05-21 04:50:00,
2013-05-21 14:55:00,80.1,74.1,29.90,East,81,10.0,13.0,82,0.00,RA,,0.01,WeatherDisplay:10.37,2013-05-21 04:55:00,
2013-05-21 15:00:00,79.9,74.3,29.89,East,81,9.0,14.0,83,0.00,RA,,0.01,WeatherDisplay:10.37,2013-05-21 05:00:00,
2013-05-21 15:10:00,79.6,74.0,29.89,East,86,10.0,15.0,83,0.00,RA,,0.01,WeatherDisplay:10.37,2013-05-21 05:10:00,
2013-05-21 15:15:00,79.5,73.9,29.89,East,88,9.0,14.0,83,0.00,RA,,0.01,WeatherDisplay:10.37,2013-05-21 05:15:00,
2013-05-21 15:20:00,79.3,73.7,29.89,East,90,8.0,14.0,83,0.00,RA,,0.01,WeatherDisplay:10.37,2013-05-21 05:20:00,
2013-05-21 15:25:00,79.3,73.7,29.89,East,93,6.0,12.0,83,0.00,RA,,0.01,WeatherDisplay:10.37,2013-05-21 05:25:00,
2013-05-21 15:30:00,79.2,74.0,29.89,East,93,8.0,12.0,84,0.00,RA,,0.01,WeatherDisplay:10.37,2013-05-21 05:30:00,
2013-05-21 15:35:00,79.2,73.9,29.89,East,90,8.0,13.0,84,0.00,RA,,0.01,WeatherDisplay:10.37,2013-05-21 05:35:00,
2013-05-21 15:40:00,79.3,74.0,29.89,East,89,8.0,12.0,84,0.00,RA,,0.01,WeatherDisplay:10.37,2013-05-21 05:40:00,
2013-05-21 15:45:00,79.2,73.6,29.89,East,90,6.0,13.0,83,0.00,RA,,0.01,WeatherDisplay:10.37,2013-05-21 05:45:00,
2013-05-21 15:50:00,79.2,73.9,29.89,East,92,8.0,12.0,84,0.00,RA,,0.01,WeatherDisplay:10.37,2013-05-21 05:50:00,
2013-05-21 15:55:00,79.2,73.6,29.89,East,93,6.0,10.0,83,0.00,RA,,0.01,WeatherDisplay:10.37,2013-05-21 05:55:00,
2013-05-21 16:00:00,79.1,73.5,29.89,East,91,6.0,10.0,83,0.00,RA,,0.01,WeatherDisplay:10.37,2013-05-21 06:00:00,
2013-05-21 16:10:00,79.1,73.5,29.89,East,88,6.0,12.0,83,0.00,RA,,0.01,WeatherDisplay:10.37,2013-05-21 06:10:00,
2013-05-21 16:15:00,79.1,73.5,29.89,East,89,7.0,12.0,83,0.00,RA,,0.01,WeatherDisplay:10.37,2013-05-21 06:15:00,
2013-05-21 16:20:00,79.2,73.6,29.89,East,87,7.0,12.0,83,0.00,RA,,0.01,WeatherDisplay:10.37,2013-05-21 06:20:00,
2013-05-21 16:25:00,79.4,73.8,29.90,East,87,8.0,12.0,83,0.00,RA,,0.01,WeatherDisplay:10.37,2013-05-21 06:25:00,
2013-05-21 16:30:00,79.2,73.6,29.90,East,88,6.0,10.0,83,0.00,RA,,0.01,WeatherDisplay:10.37,2013-05-21 06:30:00,
2013-05-21 16:35:00,79.2,73.6,29.90,East,89,6.0,10.0,83,0.00,RA,,0.01,WeatherDisplay:10.37,2013-05-21 06:35:00,
2013-05-21 16:40:00,79.2,73.6,29.89,East,90,5.0,10.0,83,0.00,RA,,0.01,WeatherDisplay:10.37,2013-05-21 06:40:00,
2013-05-21 16:45:00,79.1,73.5,29.89,East,92,6.0,8.0,83,0.00,RA,,0.01,WeatherDisplay:10.37,2013-05-21 06:45:00,
2013-05-21 16:50:00,79.1,73.8,29.89,East,89,8.0,12.0,84,0.00,RA,,0.01,WeatherDisplay:10.37,2013-05-21 06:50:00,
2013-05-21 16:55:00,79.0,74.1,29.90,East,88,8.0,12.0,85,0.00,RA,,0.01,WeatherDisplay:10.37,2013-05-21 06:55:00,
2013-05-21 17:00:00,78.9,73.7,29.90,East,89,8.0,12.0,84,0.00,RA,,0.01,WeatherDisplay:10.37,2013-05-21 07:00:00,
2013-05-21 17:10:00,78.6,73.4,29.90,East,91,8.0,13.0,84,0.00,RA,,0.01,WeatherDisplay:10.37,2013-05-21 07:10:00,
2013-05-21 17:15:00,78.7,73.8,29.90,East,89,8.0,12.0,85,0.00,RA,,0.01,WeatherDisplay:10.37,2013-05-21 07:15:00,
2013-05-21 17:20:00,78.5,73.6,29.90,East,88,10.0,14.0,85,0.00,RA,,0.01,WeatherDisplay:10.37,2013-05-21 07:20:00,
2013-05-21 17:25:00,78.5,73.6,29.90,East,85,9.0,13.0,85,0.00,RA,,0.01,WeatherDisplay:10.37,2013-05-21 07:25:00,
2013-05-21 17:30:00,78.4,73.2,29.90,East,86,9.0,12.0,84,0.00,RA,,0.01,WeatherDisplay:10.37,2013-05-21 07:30:00,
2013-05-21 17:35:00,78.5,73.6,29.91,East,88,7.0,12.0,85,0.00,RA,,0.01,WeatherDisplay:10.37,2013-05-21 07:35:00,
2013-05-21 17:40:00,78.4,73.5,29.91,East,90,7.0,12.0,85,0.00,RA,,0.01,WeatherDisplay:10.37,2013-05-21 07:40:00,
2013-05-21 17:45:00,78.3,73.4,29.91,East,91,8.0,12.0,85,0.00,RA,,0.01,WeatherDisplay:10.37,2013-05-21 07:45:00,
2013-05-21 17:50:00,78.2,73.3,29.91,East,89,9.0,12.0,85,0.00,RA,,0.01,WeatherDisplay:10.37,2013-05-21 07:50:00,
2013-05-21 17:55:00,78.1,73.2,29.91,East,90,6.0,12.0,85,0.00,RA,,0.01,WeatherDisplay:10.37,2013-05-21 07:55:00,
2013-05-21 18:00:00,78.0,73.1,29.91,East,94,5.0,10.0,85,0.00,RA,,0.01,WeatherDisplay:10.37,2013-05-21 08:00:00,
2013-05-21 18:05:00,77.9,73.0,29.91,East,95,3.0,6.0,85,0.00,RA,,0.01,WeatherDisplay:10.37,2013-05-21 08:05:00,
2013-05-21 18:10:00,77.8,72.9,29.91,East,95,7.0,10.0,85,0.00,RA,,0.01,WeatherDisplay:10.37,2013-05-21 08:10:00,
2013-05-21 18:15:00,77.8,72.9,29.92,East,95,3.0,9.0,85,0.00,RA,,0.01,WeatherDisplay:10.37,2013-05-21 08:15:00,
2013-05-21 18:20:00,77.7,72.8,29.91,East,95,3.0,6.0,85,0.00,RA,,0.01,WeatherDisplay:10.37,2013-05-21 08:20:00,
2013-05-21 18:25:00,77.8,73.3,29.91,East,93,3.0,9.0,86,0.00,RA,,0.01,WeatherDisplay:10.37,2013-05-21 08:25:00,
2013-05-21 18:30:00,77.7,72.8,29.92,East,95,2.0,5.0,85,0.00,RA,,0.01,WeatherDisplay:10.37,2013-05-21 08:30:00,
2013-05-21 18:35:00,77.7,72.8,29.92,East,96,2.0,4.0,85,0.00,RA,,0.01,WeatherDisplay:10.37,2013-05-21 08:35:00,
2013-05-21 18:40:00,77.8,72.9,29.92,East,97,2.0,4.0,85,0.00,RA,,0.01,WeatherDisplay:10.37,2013-05-21 08:40:00,
2013-05-21 18:45:00,77.9,73.4,29.92,East,97,1.0,4.0,86,0.00,RA,,0.01,WeatherDisplay:10.37,2013-05-21 08:45:00,
2013-05-21 18:50:00,77.8,72.9,29.92,East,97,2.0,4.0,85,0.00,RA,,0.01,WeatherDisplay:10.37,2013-05-21 08:50:00,
2013-05-21 18:55:00,77.8,72.9,29.93,East,96,0.0,4.0,85,0.00,RA,,0.01,WeatherDisplay:10.37,2013-05-21 08:55:00,
2013-05-21 19:00:00,77.9,73.0,29.93,East,95,0.0,3.0,85,0.00,RA,,0.01,WeatherDisplay:10.37,2013-05-21 09:00:00,
2013-05-21 19:10:00,77.8,72.6,29.93,East,94,0.0,1.0,84,0.00,RA,,0.01,WeatherDisplay:10.37,2013-05-21 09:10:00,
2013-05-21 19:15:00,77.7,72.1,29.94,East,94,0.0,1.0,83,0.00,RA,,0.01,WeatherDisplay:10.37,2013-05-21 09:15:00,
2013-05-21 19:20:00,77.6,72.0,29.94,East,94,0.0,3.0,83,0.00,RA,,0.01,WeatherDisplay:10.37,2013-05-21 09:20:00,
2013-05-21 19:25:00,77.5,71.9,29.94,East,95,0.0,0.0,83,0.00,RA,,0.01,WeatherDisplay:10.37,2013-05-21 09:25:00,
2013-05-21 19:30:00,77.5,71.9,29.94,East,95,0.0,2.0,83,0.00,RA,,0.01,WeatherDisplay:10.37,2013-05-21 09:30:00,
2013-05-21 19:35:00,77.5,71.9,29.94,East,95,0.0,1.0,83,0.00,RA,,0.01,WeatherDisplay:10.37,2013-05-21 09:35:00,
2013-05-21 19:40:00,77.5,72.3,29.94,East,95,0.0,0.0,84,0.00,RA,,0.01,WeatherDisplay:10.37,2013-05-21 09:40:00,
2013-05-21 19:45:00,77.5,71.9,29.94,East,96,1.0,3.0,83,0.00,RA,,0.01,WeatherDisplay:10.37,2013-05-21 09:45:00,
2013-05-21 19:50:00,77.4,72.2,29.95,East,99,0.0,1.0,84,0.00,RA,,0.01,WeatherDisplay:10.37,2013-05-21 09:50:00,
2013-05-21 19:55:00,77.4,72.2,29.95,East,101,0.0,1.0,84,0.00,RA,,0.01,WeatherDisplay:10.37,2013-05-21 09:55:00,
2013-05-21 20:00:00,77.3,72.1,29.95,East,101,0.0,0.0,84,0.00,RA,,0.01,WeatherDisplay:10.37,2013-05-21 10:00:00,
2013-05-21 20:10:00,77.2,72.0,29.95,East,101,0.0,0.0,84,0.00,RA,,0.01,WeatherDisplay:10.37,2013-05-21 10:10:00,
2013-05-21 20:15:00,77.2,72.3,29.96,East,101,0.0,0.0,85,0.00,RA,,0.01,WeatherDisplay:10.37,2013-05-21 10:15:00,
2013-05-21 20:20:00,77.1,72.2,29.96,East,101,0.0,0.0,85,0.00,RA,,0.01,WeatherDisplay:10.37,2013-05-21 10:20:00,
2013-05-21 20:30:00,76.9,72.1,29.96,East,101,0.0,0.0,85,0.00,RA,,0.01,WeatherDisplay:10.37,2013-05-21 10:30:00,
2013-05-21 20:35:00,76.9,72.0,29.96,East,101,0.0,0.0,85,0.00,RA,,0.01,WeatherDisplay:10.37,2013-05-21 10:35:00,
2013-05-21 20:40:00,76.7,71.9,29.96,East,101,0.0,0.0,85,0.00,RA,,0.01,WeatherDisplay:10.37,2013-05-21 10:40:00,
2013-05-21 20:45:00,76.7,71.8,29.97,East,101,0.0,0.0,85,0.00,RA,,0.01,WeatherDisplay:10.37,2013-05-21 10:45:00,
2013-05-21 20:50:00,76.7,71.8,29.97,East,101,0.0,0.0,85,0.00,RA,,0.01,WeatherDisplay:10.37,2013-05-21 10:50:00,
2013-05-21 20:55:00,76.7,72.2,29.97,East,101,0.0,0.0,86,0.00,RA,,0.01,WeatherDisplay:10.37,2013-05-21 10:55:00,
2013-05-21 21:00:00,76.7,72.2,29.97,SE,127,0.0,3.0,86,0.00,RA,,0.01,WeatherDisplay:10.37,2013-05-21 11:00:00,
2013-05-21 21:10:00,76.7,72.2,29.97,SW,222,0.0,0.0,86,0.00,RA,,0.01,WeatherDisplay:10.37,2013-05-21 11:10:00,
2013-05-21 21:15:00,76.7,72.2,29.97,SW,221,0.0,3.0,86,0.00,RA,,0.01,WeatherDisplay:10.37,2013-05-21 11:15:00,
2013-05-21 21:20:00,76.7,72.2,29.97,SW,219,0.0,1.0,86,0.00,RA,,0.01,WeatherDisplay:10.37,2013-05-21 11:20:00,
2013-05-21 21:25:00,76.6,72.1,29.97,SW,219,0.0,0.0,86,0.00,RA,,0.01,WeatherDisplay:10.37,2013-05-21 11:25:00,
2013-05-21 21:35:00,76.5,72.0,29.97,SW,219,0.0,0.0,86,0.00,RA,,0.01,WeatherDisplay:10.37,2013-05-21 11:35:00,
2013-05-21 21:40:00,76.5,72.3,29.98,SW,219,0.0,0.0,87,0.00,RA,,0.01,WeatherDisplay:10.37,2013-05-21 11:40:00,
2013-05-21 21:45:00,76.5,72.3,29.97,SW,219,0.0,0.0,87,0.00,RA,,0.01,WeatherDisplay:10.37,2013-05-21 11:45:00,
2013-05-21 21:50:00,76.4,72.3,29.98,SW,219,0.0,0.0,87,0.00,RA,,0.01,WeatherDisplay:10.37,2013-05-21 11:50:00,
2013-05-21 21:55:00,76.3,72.1,29.98,SW,219,0.0,0.0,87,0.00,RA,,0.01,WeatherDisplay:10.37,2013-05-21 11:55:00,
2013-05-21 22:00:00,76.2,72.0,29.97,SW,219,0.0,0.0,87,0.00,RA,,0.01,WeatherDisplay:10.37,2013-05-21 12:00:00,
2013-05-21 22:10:00,76.1,71.9,29.98,SW,219,0.0,0.0,87,0.00,RA,,0.01,WeatherDisplay:10.37,2013-05-21 12:10:00,
2013-05-21 22:15:00,76.1,71.9,29.98,SW,219,0.0,0.0,87,0.00,RA,,0.01,WeatherDisplay:10.37,2013-05-21 12:15:00,
2013-05-21 22:20:00,76.1,72.3,29.97,SW,219,0.0,0.0,88,0.00,RA,,0.01,WeatherDisplay:10.37,2013-05-21 12:20:00,
2013-05-21 22:25:00,76.1,72.3,29.98,SW,219,0.0,0.0,88,0.00,RA,,0.01,WeatherDisplay:10.37,2013-05-21 12:25:00,
2013-05-21 22:30:00,76.0,72.1,29.97,SW,219,0.0,0.0,88,0.00,RA,,0.01,WeatherDisplay:10.37,2013-05-21 12:30:00,
2013-05-21 22:35:00,75.8,72.0,29.97,SW,219,0.0,0.0,88,0.00,RA,,0.01,WeatherDisplay:10.37,2013-05-21 12:35:00,
2013-05-21 22:40:00,75.7,71.9,29.98,SW,219,0.0,1.0,88,0.00,RA,,0.01,WeatherDisplay:10.37,2013-05-21 12:40:00,
2013-05-21 22:45:00,75.6,72.1,29.97,SW,219,0.0,1.0,89,0.00,RA,,0.01,WeatherDisplay:10.37,2013-05-21 12:45:00,
2013-05-21 22:50:00,75.5,72.1,29.97,SW,219,0.0,0.0,89,0.00,RA,,0.01,WeatherDisplay:10.37,2013-05-21 12:50:00,
2013-05-21 22:55:00,75.6,72.1,29.98,SW,219,0.0,0.0,89,0.00,RA,,0.01,WeatherDisplay:10.37,2013-05-21 12:55:00,
2013-05-21 23:00:00,75.5,72.1,29.98,SW,219,0.0,0.0,89,0.00,RA,,0.01,WeatherDisplay:10.37,2013-05-21 13:00:00,
2013-05-21 23:10:00,75.3,71.8,29.98,SW,219,0.0,0.0,89,0.00,RA,,0.01,WeatherDisplay:10.37,2013-05-21 13:10:00,
2013-05-21 23:15:00,75.2,72.1,29.98,SW,219,0.0,0.0,90,0.00,RA,,0.01,WeatherDisplay:10.37,2013-05-21 13:15:00,
2013-05-21 23:20:00,75.2,72.0,29.98,SW,219,0.0,0.0,90,0.00,RA,,0.01,WeatherDisplay:10.37,2013-05-21 13:20:00,
2013-05-21 23:25:00,75.1,72.0,29.97,SW,219,0.0,0.0,90,0.00,RA,,0.01,WeatherDisplay:10.37,2013-05-21 13:25:00,
2013-05-21 23:30:00,75.1,72.0,29.97,SW,219,0.0,0.0,90,0.00,RA,,0.01,WeatherDisplay:10.37,2013-05-21 13:30:00,
2013-05-21 23:35:00,75.0,71.9,29.97,SW,219,0.0,0.0,90,0.00,RA,,0.01,WeatherDisplay:10.37,2013-05-21 13:35:00,
2013-05-21 23:40:00,74.9,71.8,29.96,SW,219,0.0,0.0,90,0.00,RA,,0.01,WeatherDisplay:10.37,2013-05-21 13:40:00,
2013-05-21 23:45:00,74.9,72.1,29.96,SW,219,0.0,0.0,91,0.00,RA,,0.01,WeatherDisplay:10.37,2013-05-21 13:45:00,
2013-05-21 23:50:00,74.8,72.0,29.96,SW,219,0.0,0.0,91,0.00,RA,,0.01,WeatherDisplay:10.37,2013-05-21 13:50:00,